Location: Beddau
(51.5575°N, 3.3561°W)
Time: 11:58:31
(UTC+00:00)

Cosmos 1066 Rocket - Pass Details

Date: 03 March 2021
Orbit: 799 x 894 km, 81.2° (Epoch: 16 April)

Event Time Altitude Azimuth Distance (km) Brightness Sun altitude
Rises 19:33:52 0° 349° (N) 3,431 7.6 -15.7°
Reaches altitude 10° 19:36:21 10° 355° (N) 2,505 6.8 -16.1°
Maximum altitude 19:41:55 52° 71° (ENE) 1,085 4.4 -16.9°
Enters shadow 19:45:45 20° 140° (SE) 1,909 5.6 -17.5°
